This is the latest recevied weather packets stored in our database for station/object KK7ISX. If no packets are shown the sender has not sent any weather packets the latest 1 day(s).
| Time | Temp. | Humidity | Pressure | Rain* | Wind** | Luminosity | Snow |
|---|---|---|---|---|---|---|---|
| 1778023770 | 25° C | 30% | 1007.8 hPa | 0 mm | 8.05 m/s, 310° | 370 W/m² | - |
| 1778023468 | 25° C | 30% | 1007.9 hPa | 0 mm | 6.26 m/s, 6° | 385 W/m² | - |
| 1778023164 | 25° C | 30% | 1008.1 hPa | 0 mm | 6.71 m/s, 331° | 399 W/m² | - |
| 1778022862 | 25.56° C | 29% | 1007.9 hPa | 0 mm | 6.26 m/s, 346° | 410 W/m² | - |
| 1778022560 | 25.56° C | 30% | 1008.1 hPa | 0 mm | 4.02 m/s, 341° | 434 W/m² | - |
| 1778022262 | 25.56° C | 29% | 1008.1 hPa | 0 mm | 6.26 m/s, 318° | 448 W/m² | - |
| 1778021953 | 25.56° C | 27% | 1008.1 hPa | 0 mm | 5.81 m/s, 348° | 462 W/m² | - |
| 1778021652 | 25° C | 29% | 1008.1 hPa | 0 mm | 8.05 m/s, 7° | 474 W/m² | - |
| 1778021352 | 25° C | 30% | 1008 hPa | 0 mm | 4.47 m/s, 2° | 482 W/m² | - |
| 1778021049 | 25.56° C | 30% | 1007.9 hPa | 0 mm | 5.81 m/s, 297° | 490 W/m² | - |
| 1778020746 | 25° C | 30% | 1008 hPa | 0 mm | 2.68 m/s, 308° | 508 W/m² | - |
| 1778020443 | 25° C | 32% | 1008.3 hPa | 0 mm | 4.47 m/s, 357° | 515 W/m² | - |
| 1778020139 | 25° C | 32% | 1008.2 hPa | 0 mm | 4.92 m/s, 347° | 525 W/m² | - |
| 1778019836 | 25° C | 33% | 1008.5 hPa | 0 mm | 0.89 m/s, 270° | 539 W/m² | - |
| 1778019532 | 25° C | 32% | 1008.6 hPa | 0 mm | 4.47 m/s, 40° | 551 W/m² | - |
| 1778019229 | 25° C | 34% | 1008.6 hPa | 0 mm | 4.02 m/s, 334° | 567 W/m² | - |
| 1778018926 | 24.44° C | 36% | 1008.6 hPa | 0 mm | 2.68 m/s, 15° | 578 W/m² | - |
| 1778018623 | 23.89° C | 35% | 1008.7 hPa | 0 mm | 4.02 m/s, 17° | 589 W/m² | - |
| 1778018321 | 23.89° C | 35% | 1009 hPa | 0 mm | 4.47 m/s, 357° | 603 W/m² | - |
| 1778018019 | 23.89° C | 35% | 1009.1 hPa | 0 mm | 4.02 m/s, 345° | 611 W/m² | - |
| 1778017717 | 23.89° C | 35% | 1009.1 hPa | 0 mm | 3.13 m/s, 349° | 618 W/m² | - |
| 1778017414 | 23.89° C | 35% | 1009 hPa | 0 mm | 4.47 m/s, 297° | 630 W/m² | - |
| 1778017111 | 23.89° C | 34% | 1009 hPa | 0 mm | 3.58 m/s, 334° | 638 W/m² | - |
| 1778016809 | 23.89° C | 35% | 1009.2 hPa | 0 mm | 3.13 m/s, 354° | 644 W/m² | - |
| 1778016504 | 23.33° C | 36% | 1009 hPa | 0 mm | 2.68 m/s, 306° | 646 W/m² | - |
* Rain latest hour (hover to see other rain measurements)
** Current wind speed in m/s (hover to see current wind gust speed)